Regional Weather Roundup
Issued by NWS

Home | Current Version | Previous Version | Graphics & Text | Print | Product List | Glossary On
Versions: 1 2 3 4 5 6 7 8 9 10 11 12 13 14 15 16 17 18 19 20 21 22 23 24 25 26 27 28 29 30 31 32 33 34 35 36 37 38 39 40 41 42 43 44 45 46 47 48 49 50
000
ASUS43 KOAX 092210
RWRNE

WEATHER ROUNDUP FOR NEBRASKA
NATIONAL WEATHER SERVICE OMAHA NE
400 PM CST FRI DEC 09 2016

NOTES: SATELLITE DATA IS BEING USED TO AUGMENT CLOUD COVER ABOVE
       12000 FEET.
       "FAIR" INDICATES FEW OR NO CLOUDS BELOW 12,000 FEET WITH NO
       SIGNIFICANT WEATHER AND/OR OBSTRUCTIONS TO VISIBILITY.

  * THESE STATIONS DO NOT REPORT WEATHER SUCH AS RAIN...SNOW OR FOG.

NEZ001>004-019>022-054>056-092300-
NEBRASKA PANHANDLE

CITY           SKY/WX    TMP DP  RH WIND       PRES   REMARKS
SCOTTSBLUFF    SUNNY     26  11  52 E8        30.19R WCI  18
ALLIANCE       CLOUDY    20   6  55 N13       30.20R WCI   7
KIMBALL        PTSUNNY   26  19  74 NE6       30.14R WCI  19
SIDNEY         SUNNY     26  13  57 NE8       30.18R WCI  18
$$

NEZ057>060-069>072-079>082-092300-
SOUTHWEST NEBRASKA

CITY           SKY/WX    TMP DP  RH WIND       PRES   REMARKS
NORTH PLATTE   SUNNY     28  13  53 S8        30.27R WCI  20
IMPERIAL       SUNNY     32  18  56 N5        30.22R WCI  27
LEXINGTON      PTSUNNY   27  14  57 S9        30.32S WCI  18
MCCOOK         SUNNY     30  17  58 E9        30.27R WCI  22
OGALLALA       SUNNY     28  15  58 CALM      30.23R
$$

NEZ005>010-023>029-035>040-094-092300-
NORTH CENTRAL NEBRASKA

CITY           SKY/WX    TMP DP  RH WIND       PRES   REMARKS
VALENTINE      PTCLDY    19   9  65 NE16      30.33R WCI   4
AINSWORTH      CLOUDY    21   9  58 S5        30.32R WCI  15
BROKEN BOW     CLOUDY    24  11  57 S10       30.31R WCI  14
O`NEILL        FLURRIES  19  10  67 S7        30.40R WCI  10
THEDFORD       CLEAR     28  11  49 W3        30.28R
$$

NEZ041-046>049-061>064-073>077-083>087-092300-
SOUTH CENTRAL NEBRASKA

CITY           SKY/WX    TMP DP  RH WIND       PRES   REMARKS
GRAND ISLAND   CLOUDY    22  11  62 S13       30.40S WCI  10
AURORA         CLOUDY    22  10  60 S12       30.41S WCI  11
HASTINGS       CLOUDY    23  11  60 S8        30.40R WCI  14
HEBRON         CLOUDY    24  13  63 SE8       30.45R WCI  15
HOLDREGE       SUNNY     25  13  58 SE7       30.34R WCI  18
KEARNEY *      CLOUDY    25  12  58 S12       30.36S WCI  14
YORK           CLOUDY    21  12  68 SE14      30.42F WCI   8
$$

NEZ011>018-030>034-042>045-092300-
NORTHEAST NEBRASKA

CITY           SKY/WX    TMP DP  RH WIND       PRES   REMARKS
NORFOLK        CLOUDY    17   8  67 E9        30.43F WCI   6
ALBION         CLOUDY    20  10  63 SE9       30.41R WCI   9
BLAIR          CLOUDY    21  10  62 E5        30.49F WCI  15
FREMONT        CLOUDY    20  11  69 E5        30.49F WCI  13
TEKAMAH        CLOUDY    18   9  68 SE3       30.53S
WAYNE          CLOUDY    18   8  65 SE6       30.47F WCI  10
$$

NEZ050>053-065>068-078-088>093-092300-
SOUTHEAST NEBRASKA

CITY           SKY/WX    TMP DP  RH WIND       PRES   REMARKS
LINCOLN        CLOUDY    22  12  65 SE8       30.50S WCI  12
OMAHA EPPLEY   CLOUDY    21   8  57 E5        30.53F WCI  15
BEATRICE       CLOUDY    25  11  55 SE6       30.47S WCI  18
FALLS CITY     CLOUDY    25  10  53 SE6       30.52S WCI  18
NEBRASKA CITY  CLOUDY    22   8  54 SE6       30.51S WCI  15
PLATTSMOUTH    CLOUDY    22   9  57 E3        30.51S
$$

NEZ044-045-051>053-067-092300-
OMAHA AREA

CITY           SKY/WX    TMP DP  RH WIND       PRES   REMARKS
OMAHA EPPLEY   CLOUDY    21   8  57 E5        30.53F WCI  15
BLAIR          CLOUDY    21  10  62 E5        30.49F WCI  15
FREMONT        CLOUDY    20  11  69 E5        30.49F WCI  13
MILLARD        CLOUDY    24  13  63 SE3       30.52S
OFFUTT AFB     MOCLDY    21  11  65 E5        30.52S WCI  15
PLATTSMOUTH    CLOUDY    22   9  57 E3        30.51S
WAHOO          CLOUDY    22  11  64 E6        30.49F WCI  14
$$



USA.gov is the U.S. government's official web portal to all federal, state and local government web resources and services.